Flag Weather past 2 weeks in Sioux Falls, South Dakota, U.S.A.

Now
18 °F

Clear.


Feels Like: 7 °F
Forecast: 16 / 36 °F
Wind: 9 mph from Southeast

Location: Foss Field

Current Time: Nov 28, 2014 at 3:47:17 AM

Latest Report: Nov 28, 2014 at 2:56 AM


Visibility: 10 mi

Pressure: 29.99 "Hg

Humidity: 80%

Dew point: 13 °F

Location of Sioux FallsLocation

Historic Weather in Sioux Falls — Graph

°F

Sioux Falls temperature yesterday

Maximum temperature yesterday: 18 °F (at 11:56 PM)
Minimum temperature yesterday: -5 °F (at 6:56 AM)
Average temperature yesterday: 6 °F

Past Weeks' High & Low Weather Summary

 TemperatureHumidityPressure
High44 °F (Nov 22, 2:56 PM)100% (Nov 22, 7:56 AM)30.60 "Hg (Nov 22, 7:56 AM)
Low-5 °F (Nov 27, 6:56 AM)32% (Nov 14, 2:56 PM)29.42 "Hg (Nov 23, 2:56 AM)
Average19 °F75%30.11 "Hg
* Reported Nov 13 2:56 AM — Nov 28 2:56 AM, Sioux Falls, Weather by CustomWeather, © 2014

Note: Actual official high and low records may vary slightly from our data, if they occured in-between our weather recording intervals... More about our weather records

Advertising

Sioux Falls weather history for previous 24 hours

 ConditionsComfort  
Time TempWeatherWind HumidityBarometerVisibility
2:56 AM
Nov 28
18 °FClear.9 mph80%29.99 "Hg10 mi
1:56 AM17 °FClear.8 mph80%30.02 "Hg10 mi
12:56 AM17 °FPassing clouds.13 mph76%30.05 "Hg10 mi
11:56 PM
Nov 27
18 °FOvercast.16 mph74%30.09 "Hg10 mi
10:56 PM17 °FOvercast.9 mph74%30.15 "Hg10 mi
9:56 PM15 °FOvercast.14 mph74%30.16 "Hg10 mi
8:56 PM14 °FOvercast.13 mph73%30.22 "Hg10 mi
7:56 PM13 °FOvercast.14 mph74%30.28 "Hg10 mi
6:56 PM13 °FMostly cloudy.16 mph67%30.32 "Hg10 mi
5:56 PM12 °FOvercast.13 mph67%30.33 "Hg10 mi
4:56 PM11 °FMostly cloudy.13 mph67%30.36 "Hg10 mi
3:56 PM11 °FMore clouds than sun.13 mph64%30.38 "Hg10 mi
2:56 PM11 °FMore clouds than sun.13 mph61%30.40 "Hg10 mi
1:56 PM10 °FOvercast.9 mph61%30.44 "Hg10 mi
12:56 PM8 °FOvercast.8 mph57%30.50 "Hg10 mi
11:56 AM7 °FPartly sunny.9 mph57%30.53 "Hg10 mi
10:56 AM4 °FBroken clouds.6 mph60%30.58 "Hg10 mi
9:56 AM4 °FPartly sunny.No wind63%30.60 "Hg10 mi
8:56 AM0 °FScattered clouds.No wind71%30.59 "Hg10 mi
7:56 AM-5 °FPassing clouds.6 mph75%30.58 "Hg10 mi
6:56 AM-5 °FClear.No windN/A30.58 "Hg10 mi
5:56 AM-4 °FClear.3 mph79%30.59 "Hg10 mi
4:56 AM-4 °FClear.5 mphN/A30.60 "Hg10 mi
3:56 AM-2 °FClear.3 mph75%30.60 "Hg10 mi
Weather by CustomWeather, © 2014

See weather overviewHow to use our weather pages